DateTimeUTC,F1_A11,F1_S11,BsB_S11,BsG_S11,BsR_S11,BbsB_S11,BbsG_S11,BbsR_S11,BaB_A11,BaG_A11,BaR_A11,Tu_S11,T_S11,Uu_S11,U_S11,P_S11,T1_A11
2021-03-11T21:00:00Z,00000200,21000000,,,,,,,-000.00,0000.18,0000.17,16.8,24.6,,00.0,0638.3,30.9
2021-03-11T21:01:00Z,00000200,21000000,,,,,,,-000.20,-000.55,0000.20,16.9,24.6,,00.0,0638.3,30.9
2021-03-11T21:02:00Z,00000200,21000000,,,,,,,-000.03,0000.83,0000.24,16.9,24.6,,00.0,0638.3,31.0
2021-03-11T21:03:00Z,00000200,61000000,,,,,,,0000.64,0000.27,0000.16,16.9,24.6,,00.0,0638.3,31.0
2021-03-11T21:04:00Z,00000200,41000000,0002.05,0001.77,0000.93,0000.23,-000.04,0000.05,0000.41,0000.69,0000.07,17.3,24.5,,00.0,0639.2,31.0
2021-03-11T21:05:00Z,00000200,01000000,0002.40,0001.16,0000.82,0000.58,0000.16,0000.25,0001.08,0000.55,0000.93,17.4,24.5,,00.0,0639.2,31.0
2021-03-11T21:06:00Z,00000200,01000000,0002.10,0001.35,0001.09,0000.79,0000.22,0000.02,0000.26,0000.53,0000.14,17.3,24.5,,00.0,0639.2,30.9
2021-03-11T21:07:00Z,00000200,01000000,0001.73,0001.37,0001.21,0000.61,0000.39,0000.09,0000.39,0000.06,0000.22,17.3,24.4,,00.0,0639.2,30.9
2021-03-11T21:08:00Z,00000200,01000000,0002.39,0001.31,0000.65,0000.10,0000.19,0000.11,0000.76,0000.48,0000.49,17.3,24.4,,00.0,0639.2,30.9
2021-03-11T21:09:00Z,00000200,01000000,0001.50,0001.28,0000.94,0000.35,0000.27,0000.01,0000.50,0001.00,0000.19,17.2,24.4,,00.0,0639.2,30.9
2021-03-11T21:10:00Z,00000200,01000000,0002.53,0001.58,0000.64,0000.66,0000.02,0000.16,0000.91,0000.52,0000.62,17.2,24.3,,00.0,0639.1,30.9
2021-03-11T21:11:00Z,00000200,01000000,0001.60,0001.50,0000.92,0000.27,0000.09,0000.03,0001.09,0000.74,0000.52,17.1,24.3,,00.0,0639.1,30.9
2021-03-11T21:12:00Z,00000200,01000000,0001.41,0001.18,0000.82,0000.67,0000.23,0000.27,0000.37,0000.47,0000.66,17.1,24.3,,00.0,0639.1,30.9
2021-03-11T21:13:00Z,00000200,01000000,0002.05,0001.50,0000.71,0000.29,0000.14,0000.10,0000.55,0000.40,0000.41,17.1,24.3,,00.0,0639.1,30.9
2021-03-11T21:14:00Z,00000200,01000000,0001.97,0001.13,0000.79,-000.05,0000.12,-000.04,0000.49,0000.41,-000.04,17.1,24.3,,00.0,0639.1,30.9
2021-03-11T21:15:00Z,00000200,01000000,0001.46,0001.35,0000.93,0000.50,0000.09,0000.23,0000.32,0000.54,0000.56,17.2,24.3,,00.0,0639.1,30.9
2021-03-11T21:16:00Z,00000200,01000000,0001.65,0001.33,0000.88,0000.33,0000.17,0000.05,0000.78,0000.48,0000.53,17.3,24.3,,00.0,0639.1,31.0
2021-03-11T21:17:00Z,00000200,01000000,0002.08,0001.38,0000.89,0000.13,0000.27,0000.23,0000.49,0000.73,0000.32,17.3,24.4,,00.0,0639.1,31.0
2021-03-11T21:18:00Z,00000200,01000000,0001.50,0001.25,0000.68,0000.10,0000.32,0000.11,0000.53,0000.48,0000.72,17.4,24.4,,00.0,0639.1,31.0
2021-03-11T21:19:00Z,00000200,01000000,0002.10,0001.18,0000.96,0000.16,0000.35,0000.02,0000.68,0000.64,0000.04,17.5,24.5,,00.0,0639.1,31.0
2021-03-11T21:20:00Z,00000200,01000000,0002.03,0001.19,0000.86,0000.54,0000.18,-000.21,0000.49,0000.13,0000.60,17.6,24.5,,00.0,0639.1,31.0
2021-03-11T21:21:00Z,00000200,01000000,0002.03,0001.33,0000.65,0000.50,0000.13,-000.03,0000.67,0000.54,0000.15,17.6,24.5,,00.0,0639.2,31.0
2021-03-11T21:22:00Z,00000200,01000000,0001.75,0001.26,0000.91,0000.52,0000.02,0000.33,0000.02,0000.55,0000.31,17.7,24.5,,00.0,0639.2,31.0
2021-03-11T21:23:00Z,00000200,01000000,0002.11,0001.33,0000.95,0000.77,0000.06,0000.46,0000.90,0000.53,0000.13,17.7,24.6,,00.0,0639.2,31.0
2021-03-11T21:24:00Z,00000200,01000000,0001.62,0001.29,0001.10,0000.19,0000.07,0000.12,-000.06,0000.16,0000.01,17.6,24.5,,00.0,0639.2,31.0
2021-03-11T21:25:00Z,00000200,01000000,0002.23,0001.55,0001.06,0000.70,0000.26,0000.23,0000.46,-000.01,0000.44,17.6,24.6,,00.0,0639.2,31.0
2021-03-11T21:26:00Z,00000200,01000000,0002.06,0001.39,0000.96,0000.67,0000.24,0000.12,0000.65,0000.77,0000.29,17.5,24.5,,00.0,0639.2,31.0
2021-03-11T21:27:00Z,00000200,01000000,0001.94,0001.45,0000.95,0000.11,0000.13,0000.35,0000.36,0000.40,0000.49,17.5,24.5,,00.0,0639.2,31.0
2021-03-11T21:28:00Z,00000200,01000000,0001.55,0000.99,0000.83,0000.80,0000.27,0000.31,0000.53,0000.70,0000.64,17.5,24.5,,00.0,0639.2,31.0
2021-03-11T21:29:00Z,00000200,01000000,0001.47,0001.23,0000.73,0000.46,0000.06,-000.12,0000.55,0000.68,-000.04,17.5,24.5,,00.0,0639.2,31.0
2021-03-11T21:30:00Z,00000200,01000000,0001.78,0001.26,0000.92,0000.77,0000.23,-000.04,0000.96,0000.50,0000.57,17.6,24.5,,00.0,0639.1,31.0
2021-03-11T21:31:00Z,00000200,01000000,0001.68,0000.77,0000.86,0000.27,0000.21,0000.05,0000.38,0000.19,0000.36,17.6,24.5,,00.0,0639.1,31.0
2021-03-11T21:32:00Z,00000200,01000000,0002.01,0001.12,0000.76,-000.05,0000.05,0000.17,0000.15,0000.17,0000.17,17.7,24.6,,00.0,0639.1,31.0
2021-03-11T21:33:00Z,00000200,01000000,0001.58,0001.11,0000.71,0000.37,0000.08,-000.09,0000.63,0000.62,0000.41,17.7,24.6,,00.0,0639.1,31.0
2021-03-11T21:34:00Z,00000200,01000000,0001.50,0000.87,0000.93,0000.19,-000.01,0000.24,0000.84,0000.72,0000.13,17.7,24.6,,00.0,0639.1,31.0
2021-03-11T21:35:00Z,00000200,01000000,0001.73,0001.23,0000.80,0000.10,0000.29,0000.03,0000.17,0000.06,0000.29,17.6,24.6,,00.0,0639.1,31.0
2021-03-11T21:36:00Z,00000200,01000000,0001.47,0001.19,0000.55,0000.48,0000.23,-000.05,0001.09,0001.20,0000.92,17.5,24.5,,00.0,0639.1,30.9
2021-03-11T21:37:00Z,00000200,01000000,0001.48,0001.17,0000.59,0000.46,0000.05,-000.05,0000.51,0000.42,-000.09,17.5,24.5,,00.0,0639.1,30.9
2021-03-11T21:38:00Z,00000200,01000000,0001.78,0000.90,0000.64,0000.32,0000.28,-000.03,0000.27,-000.03,0000.54,17.4,24.5,,00.0,0639.1,30.9
2021-03-11T21:39:00Z,00000200,01000000,0001.75,0001.07,0000.87,0000.49,0000.26,0000.02,0000.90,0000.52,0000.33,17.4,24.5,,00.0,0639.1,30.9
2021-03-11T21:40:00Z,00000200,01000000,0001.82,0000.97,0000.58,0000.72,0000.16,0000.06,-000.00,0001.04,0000.69,17.3,24.5,,00.0,0639.0,30.9
2021-03-11T21:41:00Z,00000200,01000000,0001.53,0000.83,0000.65,0000.20,-000.11,-000.13,0000.88,0000.32,0000.32,17.3,24.4,,00.0,0639.0,30.9
2021-03-11T21:42:00Z,00000200,01000000,0001.18,0000.93,0000.63,0000.52,0000.19,-000.13,-000.28,-000.23,-000.16,17.3,24.4,,00.0,0639.0,30.9
2021-03-11T21:43:00Z,00000200,01000000,0001.87,0001.21,0000.75,0000.13,-000.02,0000.02,0000.39,-000.11,0000.22,17.2,24.4,,00.0,0639.0,30.9
2021-03-11T21:44:00Z,00000200,01000000,0001.17,0000.90,0000.49,-000.06,0000.18,-000.16,0000.72,0000.93,0000.02,17.3,24.4,,00.0,0639.0,30.9
2021-03-11T21:45:00Z,00000200,01000000,0001.98,0000.73,0000.76,0000.29,0000.00,0000.23,0000.27,0000.31,0000.65,17.3,24.4,,00.0,0639.0,30.9
2021-03-11T21:46:00Z,00000200,01000000,0001.01,0000.76,0000.57,0000.69,0000.08,0000.17,0000.95,0000.80,0000.58,17.4,24.4,,00.0,0639.0,31.0
2021-03-11T21:47:00Z,00000200,01000000,0001.22,0000.70,0000.84,0000.67,0000.34,0000.07,0000.58,0000.52,0000.36,17.5,24.5,,00.0,0639.0,31.0
2021-03-11T21:48:00Z,00000200,01000000,0001.27,0000.72,0000.66,0000.43,-000.02,-000.04,0000.53,0000.31,0000.09,17.6,24.5,,00.0,0639.0,31.0
2021-03-11T21:49:00Z,00000200,01000000,0001.30,0000.96,0000.47,0000.51,0000.18,-000.14,0000.51,0000.37,0000.94,17.6,24.5,,00.0,0639.0,31.0
2021-03-11T21:50:00Z,00000200,01000000,0001.65,0000.80,0000.28,0000.24,-000.25,-000.21,0000.37,0000.61,-000.00,17.7,24.6,,00.0,0639.0,31.0
2021-03-11T21:51:00Z,00000200,01000000,0001.56,0000.97,0000.59,0000.10,0000.30,0000.02,0000.06,0000.48,0000.40,17.8,24.6,,00.0,0639.0,31.0
2021-03-11T21:52:00Z,00000200,01000000,0001.81,0001.09,0000.77,0000.83,0000.07,0000.07,0000.47,0000.24,0000.05,17.8,24.7,,00.0,0639.0,31.0
2021-03-11T21:53:00Z,00000200,01000000,0001.33,0001.00,0000.48,0000.13,0000.27,0000.27,-000.10,-000.22,0000.07,17.9,24.7,,00.0,0639.0,31.0
2021-03-11T21:54:00Z,00000200,01000000,0001.17,0001.10,0000.94,0000.40,0000.09,0000.25,0000.43,0000.42,0000.03,17.9,24.7,,00.0,0639.0,31.0
2021-03-11T21:55:00Z,00000200,01000000,0001.56,0000.91,0000.60,0000.34,0000.05,-000.06,0000.55,0000.07,0000.12,17.9,24.7,,00.0,0639.0,31.0
2021-03-11T21:56:00Z,00000200,01000000,0001.32,0000.82,0000.71,0000.41,0000.22,0000.02,0000.47,0000.45,0000.29,17.8,24.7,,00.0,0639.0,31.0
2021-03-11T21:57:00Z,00000200,41000000,,,,,,,0000.92,0001.10,0000.96,17.9,24.7,,00.0,0639.0,31.0
2021-03-11T21:58:00Z,00000200,61000000,,,,,,,-000.56,-000.59,-000.75,17.4,24.8,,00.0,0638.0,31.0
2021-03-11T21:59:00Z,00000200,21000000,,,,,,,-000.36,-000.06,0000.08,17.3,24.9,,00.0,0638.0,31.0
